TimeEST,TemperatureF,Dew PointF,Humidity,Sea Level PressureIn,VisibilityMPH,Wind Direction,Wind SpeedMPH,Gust SpeedMPH,PrecipitationIn,Events,Conditions,WindDirDegrees,DateUTC
12:51 AM,37.0,26.1,65,30.19,-9999.0,ENE,3.5,-,N/A,,Unknown,60,2012-12-09 05:51:00
1:51 AM,34.0,26.1,73,30.21,-9999.0,SW,5.8,-,N/A,,Unknown,230,2012-12-09 06:51:00
2:51 AM,35.1,26.1,70,30.23,-9999.0,Calm,Calm,-,N/A,,Unknown,0,2012-12-09 07:51:00
3:51 AM,34.0,28.0,79,30.22,-9999.0,Calm,Calm,-,N/A,,Unknown,0,2012-12-09 08:51:00
4:51 AM,36.0,28.9,76,30.22,-9999.0,East,15.0,-,N/A,,Unknown,90,2012-12-09 09:51:00
5:51 AM,35.1,28.0,76,30.21,-9999.0,East,18.4,-,N/A,,Unknown,90,2012-12-09 10:51:00
6:51 AM,35.1,27.0,72,30.24,-9999.0,East,16.1,-,N/A,,Unknown,90,2012-12-09 11:51:00
7:51 AM,34.0,26.1,73,30.23,-9999.0,East,18.4,-,N/A,,Unknown,100,2012-12-09 12:51:00
8:51 AM,34.0,26.1,73,30.21,-9999.0,East,20.7,-,N/A,,Unknown,100,2012-12-09 13:51:00
9:51 AM,34.0,26.1,73,30.20,-9999.0,East,21.9,-,N/A,,Unknown,100,2012-12-09 14:51:00
10:51 AM,33.1,24.1,70,30.22,-9999.0,East,19.6,27.6,N/A,,Unknown,90,2012-12-09 15:51:00
11:51 AM,33.1,24.1,70,30.19,-9999.0,East,17.3,-,N/A,,Unknown,80,2012-12-09 16:51:00
12:51 PM,33.1,24.1,70,30.13,-9999.0,ENE,19.6,-,N/A,,Unknown,70,2012-12-09 17:51:00
1:51 PM,33.1,24.1,70,30.07,-9999.0,ENE,21.9,-,N/A,,Unknown,70,2012-12-09 18:51:00
2:51 PM,33.1,25.0,72,30.02,-9999.0,ENE,25.3,31.1,N/A,,Unknown,70,2012-12-09 19:51:00
3:51 PM,34.0,25.0,70,29.98,-9999.0,East,23.0,29.9,N/A,,Unknown,90,2012-12-09 20:51:00
4:51 PM,34.0,25.0,70,29.94,-9999.0,East,25.3,-,N/A,,Unknown,90,2012-12-09 21:51:00
5:51 PM,32.0,28.9,88,29.89,-9999.0,East,25.3,-,0.01,,Unknown,90,2012-12-09 22:51:00
6:51 PM,34.0,30.9,89,29.88,-9999.0,East,17.3,-,0.04,,Unknown,90,2012-12-09 23:51:00
7:51 PM,35.1,32.0,89,29.83,-9999.0,East,16.1,-,0.01,,Unknown,90,2012-12-10 00:51:00
8:51 PM,36.0,34.0,93,29.78,-9999.0,East,16.1,-,0.02,,Unknown,90,2012-12-10 01:51:00
9:51 PM,36.0,35.1,97,29.74,-9999.0,East,13.8,-,0.01,,Unknown,100,2012-12-10 02:51:00
10:51 PM,37.0,36.0,96,29.70,-9999.0,East,12.7,-,0.01,,Unknown,100,2012-12-10 03:51:00
11:51 PM,37.0,37.0,100,29.67,-9999.0,SE,3.5,-,N/A,,Unknown,130,2012-12-10 04:51:00